Find Starlink 31292

NORAD ID: 59081 Int'l Des: 2024-041 Owner: SPXS Country: US Constellation: starlink operational
LEOCIRCULAR

当前视图

正在加载3D地球...

About Starlink 31292

Starlink 31292 (NORAD 59081) is a starlink constellation satellite (v2 mini) launched Feb 29, 2024 by SPXS of US. It operates in LEO, CIRCULAR orbit with a mass of 730.00 kg.

即将过境

Passes for default location (London). Set your location on the main map for personalized predictions.

高度历史

Loading altitude history...

两行轨道根数

1 59081U 24041H 26263.79678092 .00001082 00000-0 48860-4 0 9992
2 59081 43.0045 288.5869 0001544 281.2691 78.7988 15.27577622144101
Epoch: Sep 20, 2026 • Age: 19 hours

当前状态

高度 484.7 km
远地点 / 近地点 N/A
速度 7.63 km/s
星下点 30.60°N, 153.49°W
发射日期 Feb 29, 2024
运行时间 2.5 years
类型 internet

技术详情

分类 Payload
质量 730.00 kg
干质量 700.00 kg
长度 0.30 m
跨度 29.00 m
形状 ? Box + pan
制造商 SPXS
平台类型 Starlink V2M
阶段状态 In Orbit
所有者/国家 SPXS/US

Most Searched